DW2168 Weather Reports


time (UTC)temp
C
wind
direction
speed
KPH
gust
KPH
rain 1hr
cm
rain 24hr
cm
rain mn
cm
humidity
%
barometer
mb
20260505061006 14 1 0.0 1.6 0.00 0.00 0.00 48 1013.0
20260505055007 15 1 0.0 6.4 0.00 0.00 0.00 47 1012.8
20260505054006 13 1 1.6 6.4 0.00 0.00 0.00 49 1012.6
20260505053007 14 1 1.6 6.4 0.00 0.00 0.00 48 1012.5
20260505052006 15 0 0.0 0.0 0.00 0.00 0.00 48 1012.4
20260505051007 15 1 0.0 1.6 0.00 0.00 0.00 45 1012.2
20260505041007 19 1 1.6 6.4 0.00 0.00 0.00 36 1011.7
20260505040006 20 1 1.6 6.4 0.00 0.00 0.00 35 1011.6
20260505035007 20 1 1.6 8.0 0.00 0.00 0.00 35 1011.5
20260505034007 20 1 1.6 8.0 0.00 0.00 0.00 35 1011.3
20260505033006 21 1 1.6 8.0 0.00 0.00 0.00 34 1011.2
20260505032007 21 1 1.6 4.8 0.00 0.00 0.00 33 1011.1
20260505031006 21 1 4.8 12.9 0.00 0.00 0.00 33 1011.0
20260505030007 22 1 1.6 9.7 0.00 0.00 0.00 32 1010.9
20260505025007 22 1 3.2 9.7 0.00 0.00 0.00 32 1010.9
20260505024006 23 1 3.2 9.7 0.00 0.00 0.00 32 1010.8
20260505022007 23 1 4.8 14.5 0.00 0.00 0.00 32 1010.8
20260505021007 23 1 4.8 11.3 0.00 0.00 0.00 31 1010.7
20260505020006 23 1 3.2 11.3 0.00 0.00 0.00 31 1010.7
20260505015006 23 1 3.2 6.4 0.00 0.00 0.00 31 1010.8
20260505014007 23 1 1.6 6.4 0.00 0.00 0.00 31 1010.7
20260505013006 23 1 1.6 9.7 0.00 0.00 0.00 31 1010.8
20260505012007 23 1 0.0 4.8 0.00 0.00 0.00 31 1010.7
20260505011007 23 1 4.8 9.7 0.00 0.00 0.00 30 1010.8
20260505010006 23 359 3.2 8.0 0.00 0.00 0.00 29 1010.9
20260505005007 24 1 6.4 11.3 0.00 0.00 0.00 29 1011.0
20260505004006 24 359 3.2 11.3 0.00 0.00 0.00 30 1011.0
20260505003006 25 1 3.2 11.3 0.00 0.00 0.00 28 1011.1
20260505002006 25 359 3.2 11.3 0.00 0.00 0.00 28 1011.2
20260505001006 24 1 3.2 11.3 0.00 0.00 0.00 29 1011.2
20260504235006 25 1 3.2 8.0 0.00 0.00 0.00 29 1011.4
20260504234007 25 1 6.4 12.9 0.00 0.00 0.00 28 1011.4
20260504233006 24 1 6.4 11.3 0.00 0.00 0.00 29 1011.5
20260504232006 25 1 4.8 11.3 0.00 0.00 0.00 28 1011.5
20260504231006 25 1 3.2 9.7 0.00 0.00 0.00 28 1011.6
20260504230006 25 1 3.2 11.3 0.00 0.00 0.00 28 1011.7
20260504224006 24 1 4.8 12.9 0.00 0.00 0.00 29 1011.9
20260504223007 24 1 4.8 12.9 0.00 0.00 0.00 29 1011.9
20260504222006 25 1 4.8 14.5 0.00 0.00 0.00 28 1011.9
20260504220007 25 1 3.2 11.3 0.00 0.00 0.00 29 1012.1
20260504215007 25 1 4.8 11.3 0.00 0.00 0.00 29 1012.2
20260504214007 24 1 6.4 14.5 0.00 0.00 0.00 32 1012.3
20260504213006 24 359 8.0 14.5 0.00 0.00 0.00 31 1012.4
20260504212007 24 1 8.0 17.7 0.00 0.00 0.00 31 1012.5
20260504211006 24 1 6.4 19.3 0.00 0.00 0.00 30 1012.6
20260504210007 23 1 8.0 16.1 0.00 0.00 0.00 32 1012.7
20260504205007 23 1 6.4 16.1 0.00 0.00 0.00 32 1012.6
20260504204007 23 1 6.4 14.5 0.00 0.00 0.00 33 1012.7
20260504203006 23 1 3.2 16.1 0.00 0.00 0.00 34 1012.8
20260504201007 23 1 4.8 11.3 0.00 0.00 0.00 33 1013.0
20260504200006 22 1 6.4 12.9 0.00 0.00 0.00 33 1013.1
20260504195007 22 359 6.4 16.1 0.00 0.00 0.00 33 1013.1
20260504194006 22 359 4.8 14.5 0.00 0.00 0.00 35 1013.2
20260504193006 22 1 3.2 9.7 0.00 0.00 0.00 34 1013.3
20260504192006 22 1 4.8 11.3 0.00 0.00 0.00 35 1013.3
20260504191007 21 1 4.8 12.9 0.00 0.00 0.00 35 1013.4
20260504190006 21 1 4.8 9.7 0.00 0.00 0.00 35 1013.6
20260504185006 21 1 4.8 12.9 0.00 0.00 0.00 37 1013.5
20260504184007 20 1 3.2 11.3 0.00 0.00 0.00 37 1013.6
20260504183006 21 1 4.8 11.3 0.00 0.00 0.00 38 1013.8
20260504182007 20 1 4.8 12.9 0.00 0.00 0.00 37 1013.8
20260504181006 20 1 6.4 16.1 0.00 0.00 0.00 40 1014.0
20260504180006 20 1 6.4 16.1 0.00 0.00 0.00 40 1013.8
20260504175006 19 1 6.4 16.1 0.00 0.00 0.00 40 1013.9
20260504174007 18 1 6.4 16.1 0.00 0.00 0.00 41 1013.9
20260504173007 18 1 3.2 9.7 0.00 0.00 0.00 43 1013.9
20260504172007 18 1 3.2 11.3 0.00 0.00 0.00 43 1014.0
20260504171007 18 1 3.2 11.3 0.00 0.00 0.00 44 1014.2
20260504151007 14 359 1.6 4.8 0.00 0.00 0.00 52 1014.8
20260504141006 12 354 1.6 4.8 0.00 0.00 0.00 57 1014.5
20260504082006 12 1 1.6 6.4 0.00 0.00 0.00 48 1013.5
20260504081006 12 1 3.2 9.7 0.00 0.00 0.00 47 1013.4